Hauptseite
METAR-TAF:

METAR-TAF

Flughäfen :

Fliegerhorst Meppen

Meppen, Deutschland

Breite: 52-43-24N, Länge: 007-19-35E, Höhe: 21 m

Beobachtung

Neuester Wetterbericht von vor 59 Minuten, um 10:20 UTC
Wind 4 kt aus Ost/Nordost
Temperatur 22°C
Luftfeuchtigkeit 38%
Luftdruck 1019 hPa
Sichtweite 10 km oder mehr
Leicht bewölkt in der Höhe von 4000 ft
Aufgelockert bewölkt in der Höhe von 7900 ft

METAR: ETWM 191020Z 07004KT 9999 FEW040 SCT079 22/07 Q1019 BLU+

Zeit: 13:19 (11:19 UTC)


TAF: fehlend

Wetterbeobachtungen und Prognosen von mehr als 4000 Flughäfen (METAR und TAF Bericht).

Die verfügbaren Stationen werden durch gelbe und rote Markierungen auf der Karte dargestellt.

Führen Sie die Maus auf sie, um den Namen der Station zu sehen.

Darauf klicken, um die Beobachtung von Wetterbeobachtungen und Prognosen zu sehen.

Um die Karte zu ändern : klicken Sie auf den grünen Tasten mit einem schwarzen Kreuz Zum Vergrößern, auf den grünen Button mit einem Gedankenstrich zu verkleinern, oder auf die grünen Pfeile für benachbarte Karten.


METAR-TAF: